CHINASAT 16 (SJ-13)

Last updated on Wed Jul 02 2025 00:02:47 GMT+0000 (Coordinated Universal Time)

1 42662U 17018A 25182.64106493 -.00000348 00000+0 00000+0 0 9992 2 42662 0.0410 93.8126 0004530 132.4687 34.9286 1.00269561 30228
UTC large
Height (km)
Speed (km/s)
/
Latitude / Longitude
Inclination (degrees)
Orbital Period (minutes)
Azimuth
Elevation
Range (km)
Doppler Factor

Next 0 passes for location: London (51.5072 / 0.1276)

Sorry there are no passes over London.